Weather History for Quesnel, BC

Change the Weather History Date:

Tuesday, September 17, 2013

  Actual Average Record
Temperature  
Mean Temperature 52 °F -  
Max Temperature 62 °F 60 °F 77 °F (2012)
Min Temperature 42 °F 38 °F 24 °F (2006)
Degree Days  
Heating Degree Days 13    
Growing Degree Days 2 (Base 50)    
Moisture  
Dew Point 43 °F    
Average Humidity 82    
Maximum Humidity 100    
Minimum Humidity 42    
Precipitation  
Precipitation 0.00 in - - ()
Sea Level Pressure  
Sea Level Pressure 29.89 in    
Wind  
Wind Speed 2 mph ()    
Max Wind Speed 6 mph    
Max Gust Speed -    
Visibility 6.2 miles    
Events Fog    
Averages and records for this station are not official NWS values.
T = Trace of Precipitation, MM = Missing Value Source: Averaged Metar Reports

Daily Weather History Graph

Daily Weather History Graph

Search for Another Location

Airport:

Trip Planner

Search our weather history database for the weather conditions in past years. The results will help you decide how hot, cold, wet, or windy it might be!

Date:

Astronomy

Sep. 17, 2013 Rise Set
Actual Time 6:48 AM PDT 7:19 PM PDT
Civil Twilight 6:13 AM PDT 7:54 PM PDT
Nautical Twilight 5:31 AM PDT 8:35 PM PDT
Astronomical Twilight 4:47 AM PDT 9:19 PM PDT
Moon 6:15 PM PDT (9/17) 4:38 AM PDT (9/17)
Length of Visible Light 13h 41m
Length of Day
12h 31m
Waxing Gibbous, 96% of the Moon is Illuminated
Sep 17
Waxing Gibbous
Sep 19
Full
Sep 26
Last Quarter
Oct 4
New
Oct 11
First Quarter

Hourly Weather History & Observations

Time (PDT) Temp. Windchill Dew Point Humidity Pressure Visibility Wind Dir Wind Speed Gust Speed Precip Events Conditions
12:00 AM 50.0 °F - 48.2 °F 94% 29.88 in 0.1 mi Variable 2.3 mph - N/A Fog Fog
1:00 AM 48.2 °F - 48.2 °F 100% 29.89 in 0.2 mi Variable 2.3 mph - N/A Fog Fog
2:00 AM 48.2 °F - 46.4 °F 93% 29.90 in 1.5 mi Variable 2.3 mph - N/A   Overcast
3:00 AM 46.4 °F - 46.4 °F 100% 29.91 in 1.2 mi Calm Calm - N/A   Overcast
3:06 AM 46.4 °F - 44.6 °F 93% 29.91 in 3.0 mi Calm Calm - N/A   Overcast
4:00 AM 44.6 °F - 44.6 °F 100% 29.91 in 6.0 mi Variable 2.3 mph - N/A   Overcast
4:38 AM 44.6 °F 43.1 °F 42.8 °F 93% 29.92 in 2.5 mi ENE 3.5 mph - N/A   Overcast
5:00 AM 42.8 °F 39.3 °F 42.8 °F 100% 29.92 in 1.2 mi ENE 5.8 mph - N/A   Overcast
6:00 AM 42.8 °F - 42.8 °F 100% 29.93 in 3.0 mi East 2.3 mph - N/A   Overcast
7:00 AM 42.8 °F - 41.0 °F 93% 29.93 in 3.0 mi East 2.3 mph - N/A   Overcast
8:00 AM 42.8 °F - 41.0 °F 93% 29.94 in 9.0 mi Calm Calm - N/A   Overcast
9:00 AM 42.8 °F - 41.0 °F 93% 29.94 in 8.0 mi Calm Calm - N/A   Overcast
10:00 AM 46.4 °F - 42.8 °F 87% 29.94 in 9.0 mi Variable 2.3 mph - N/A   Overcast
11:00 AM 48.2 °F - 44.6 °F 87% 29.92 in 7.0 mi Calm Calm - N/A   Mostly Cloudy
11:09 AM 50.0 °F - 44.6 °F 82% 29.92 in 6.0 mi Variable 3.5 mph - N/A   Haze
12:00 PM 53.6 °F - 44.6 °F 72% 29.90 in 8.0 mi Calm Calm - N/A   Clear
1:00 PM 57.2 °F - 44.6 °F 63% 29.88 in 8.0 mi Variable 4.6 mph - N/A   Clear
2:00 PM 60.8 °F - 39.2 °F 45% 29.86 in 9.0 mi SSE 3.5 mph - N/A   Clear
3:00 PM 60.8 °F - 39.2 °F 45% 29.84 in 9.0 mi NNW 3.5 mph - N/A   Clear
4:00 PM 62.6 °F - 39.2 °F 42% 29.83 in 9.0 mi Variable 2.3 mph - N/A   Clear
5:00 PM 62.6 °F - 39.2 °F 42% 29.83 in 9.0 mi Variable 2.3 mph - N/A   Clear
6:00 PM 62.6 °F - 42.8 °F 48% 29.82 in 9.0 mi WNW 3.5 mph - N/A   Clear
7:00 PM 55.4 °F - 48.2 °F 77% 29.83 in 9.0 mi NW 2.3 mph - N/A   Clear
8:00 PM 48.2 °F - 44.6 °F 87% 29.85 in 9.0 mi NNW 3.5 mph - N/A   Clear
9:00 PM 46.4 °F - 44.6 °F 93% 29.87 in 9.0 mi Calm Calm - N/A   Clear
10:00 PM 44.6 °F 43.1 °F 42.8 °F 93% 29.89 in 9.0 mi NNE 3.5 mph - N/A   Clear
11:00 PM 46.4 °F - 42.8 °F 87% 29.88 in 9.0 mi Calm Calm - N/A   Clear